Wetbulb
56.32 56.08 55.97 55.90 55.71 55.48 55.29 54.97 54.45 54.36 54.73 54.86 54.55 54.35 53.69 53.39 53.57 53.71 54.04 54.62 55.33 55.47 55.21 55.02 55.10 54.56 52.27 46.00 46.06 55.55 59.86 61.52 57.31 56.29 51.77 48.88 46.23 43.86 39.27 41.22 43.45 40.86 43.10 45.47 46.41 45.86 45.38
55.89 55.66 55.47 55.42 55.27 55.14 54.96 54.66 54.09 53.88 54.22 54.47 54.14 53.67 52.87 52.78 52.94 53.20 53.64 54.54 55.58 55.86 55.63 55.38 55.23 55.46 48.46 40.32 50.49 56.58 56.59 55.65 55.00 54.99 52.15 47.68 45.03 45.59 41.45 41.38 39.78 41.57 42.89 43.66 44.77 44.53 44.92
55.43 55.37 55.23 55.11 54.94 54.77 54.63 54.31 53.85 53.69 54.02 54.06 53.68 52.95 52.46 52.46 52.85 52.89 53.39 54.63 55.40 55.80 55.81 55.86 56.00 53.62 45.95 42.86 46.54 49.62 51.81 54.47 54.43 53.94 47.71 47.27 46.96 43.06 41.84 39.59 43.21 41.88 38.00 39.37 41.15 42.40 41.64
55.06 54.99 54.87 54.77 54.65 54.41 54.20 53.94 53.71 53.64 53.91 53.79 53.23 52.71 53.03 52.93 52.92 52.54 53.14 54.17 54.86 56.16 56.41 56.71 55.82 50.96 43.47 50.88 44.78 45.11 46.95 48.02 48.87 49.25 48.99 44.83 44.32 42.14 39.99 41.02 39.67 36.81 34.68 30.88 39.37 41.31 42.23
54.69 54.62 54.55 54.42 54.38 54.24 54.08 53.69 53.51 53.42 53.60 53.49 52.97 52.49 52.47 52.82 53.26 53.19 53.96 55.04 56.25 56.17 57.20 57.54 51.33 47.81 41.97 49.43 43.11 43.68 43.42 42.84 43.61 44.26 44.54 45.51 43.48 38.19 37.99 33.33 29.95 31.88 26.58 29.37 33.73 40.89 39.72
54.38 54.28 54.19 54.06 54.02 53.87 53.79 53.35 53.00 52.87 53.18 52.95 52.71 53.23 53.20 53.12 53.11 53.15 53.98 54.70 55.55 53.62 54.68 55.96 52.48 44.20 45.32 40.85 42.24 42.69 42.36 43.14 42.07 41.15 40.69 39.05 36.86 32.38 31.72 30.07 24.64 25.48 27.45 29.84 30.64 36.00 37.35
54.00 53.97 53.90 53.69 53.45 53.39 53.07 53.22 52.63 52.54 52.55 53.35 53.27 52.93 52.86 52.88 52.99 52.75 51.23 45.85 41.28 40.22 41.60 38.17 39.17 40.14 43.73 44.36 43.84 40.90 42.53 41.05 41.10 37.49 30.72 34.68 29.64 25.76 30.26 33.50 32.92 31.25 29.88 28.50 32.80 37.38 34.29
53.47 53.58 53.59 53.35 53.04 52.77 52.63 52.41 52.17 52.19 52.42 53.16 52.95 52.67 52.65 52.64 52.62 52.96 47.77 42.24 42.67 43.32 37.04 41.90 41.64 42.07 46.13 45.98 41.46 41.60 42.02 35.64 34.65 30.40 33.23 30.34 26.41 33.32 35.74 35.10 33.83 32.57 29.85 29.51 33.54 36.26 33.60
53.02 53.18 53.24 52.92 52.59 52.35 52.33 52.17 51.65 51.78 51.94 52.09 52.76 52.54 52.45 52.23 52.49 48.12 42.43 42.28 45.71 47.10 35.52 37.70 43.28 43.35 41.78 40.84 39.16 38.72 39.31 37.03 33.95 30.93 31.29 27.24 32.22 36.44 34.95 33.56 32.26 31.50 28.49 28.89 30.71 32.44 32.53
52.74 52.96 52.72 52.36 52.18 52.00 51.79 51.78 51.49 51.45 52.33 52.69 52.55 52.51 52.31 51.87 45.49 44.18 40.34 43.80 44.98 47.53 29.82 34.93 39.36 40.32 38.95 39.25 34.64 40.52 40.76 36.81 35.03 31.95 32.45 31.41 36.49 34.93 31.55 30.89 32.15 27.62 30.57 31.71 31.48 29.05 24.79
52.56 52.41 52.15 51.91 51.92 51.73 51.55 51.45 51.55 51.81 52.62 52.17 52.11 52.31 52.14 50.98 42.62 41.67 41.64 42.99 43.97 44.60 18.89 37.79 36.84 41.69 40.41 35.42 35.75 35.09 37.66 34.52 29.60 30.78 28.85 27.77 29.09 27.91 28.87 30.25 32.10 28.44 31.37 29.79 28.92 24.96 22.75
52.25 52.02 51.75 51.88 51.43 51.56 51.72 51.65 51.60 52.32 52.29 51.95 51.66 51.74 51.70 45.89 41.43 43.49 41.85 42.55 43.54 31.40 19.76 32.58 37.00 37.77 35.80 36.28 36.12 34.47 33.87 34.15 33.82 29.88 30.17 28.97 30.04 28.73 27.67 29.38 29.66 30.39 28.65 27.57 25.06 23.86 15.69
51.65 51.80 51.83 51.70 51.75 51.69 51.64 51.46 51.87 51.99 51.95 51.84 51.63 51.30 49.11 45.61 38.36 41.45 41.33 39.83 28.15 23.98 35.02 30.24 31.28 33.54 31.97 31.52 33.71 33.05 30.24 26.85 25.43 23.58 22.01 27.56 25.04 27.16 29.87 24.99 28.03 27.27 24.20 20.77 16.54 13.40 16.50
51.79 51.62 51.36 51.41 51.61 51.48 51.18 50.93 51.09 51.26 51.84 51.46 50.94 50.59 45.85 44.56 42.68 40.05 39.30 33.09 22.88 28.79 27.90 33.49 31.44 30.90 27.92 31.70 31.57 31.88 29.41 26.38 28.54 27.08 24.67 23.77 21.91 25.61 28.99 26.66 24.26 24.59 25.70 22.39 13.13 13.77 16.25
51.38 50.98 51.28 51.29 51.31 51.26 51.01 51.01 51.16 51.62 50.84 50.44 49.91 42.25 40.88 41.58 41.50 39.91 34.47 21.22 23.66 28.14 29.40 27.61 28.75 24.66 26.61 32.05 28.72 28.98 26.24 26.13 28.69 29.71 25.29 24.36 23.42 26.96 28.68 28.87 29.03 25.65 22.64 27.79 21.48 22.45 17.47
50.87 51.00 51.03 51.15 51.26 51.16 51.03 50.73 50.51 50.53 50.06 49.57 42.38 38.66 37.83 41.73 40.42 38.04 30.65 26.30 26.64 30.81 30.75 30.13 21.57 24.78 19.69 22.78 23.33 26.11 26.20 31.61 30.61 32.64 32.15 27.16 20.14 25.37 27.06 29.06 29.28 27.84 29.59 21.58 22.61 13.64 12.56
50.70 51.01 50.90 51.06 50.97 50.76 50.28 49.86 49.24 49.04 49.43 48.35 38.48 34.25 38.60 42.46 38.97 33.17 24.77 24.27 28.90 32.56 31.61 27.20 24.09 22.49 22.58 22.83 23.88 23.38 24.52 29.68 31.73 30.57 32.49 30.75 26.68 24.07 24.82 22.34 22.43 24.12 24.28 24.49 22.82 20.51 11.64
50.90 50.80 50.70 50.69 50.88 50.08 49.68 48.62 48.26 48.48 48.41 44.59 36.04 29.64 39.96 40.93 26.32 24.64 21.89 26.53 33.46 29.69 30.76 28.42 27.09 25.18 23.20 21.97 19.28 21.76 23.88 26.31 30.31 29.12 24.69 26.63 24.16 16.90 23.35 28.65 29.62 26.82 23.84 24.88 18.36 13.66 15.85
50.79 50.69 50.67 50.56 50.64 50.07 49.60 48.22 47.51 48.19 47.82 40.89 32.68 31.18 39.16 36.59 21.23 21.86 27.17 28.78 29.93 28.43 27.40 26.66 24.80 26.85 25.75 21.07 14.97 23.75 24.63 29.81 28.87 25.61 22.94 25.98 20.02 13.86 17.55 22.39 26.39 21.78 22.02 22.98 21.42 19.12 14.97
50.62 50.57 50.63 50.99 50.63 50.33 49.38 48.01 47.12 47.62 47.59 39.27 34.12 26.65 29.81 30.78 30.41 25.24 24.59 26.02 25.71 30.82 27.63 27.90 25.83 26.70 22.69 21.33 23.67 15.65 19.12 26.60 27.93 26.07 30.80 27.95 19.14 18.68 11.01 17.85 22.36 16.92 21.70 23.11 17.49 9.69 9.84
50.54 50.72 50.52 49.84 49.36 49.39 48.64 47.85 46.78 47.29 46.88 40.70 35.51 28.71 29.24 23.05 25.49 26.30 28.58 26.26 24.42 24.95 29.30 28.65 23.82 24.60 20.61 12.11 15.05 17.06 20.44 20.67 23.67 27.39 24.37 24.60 17.58 18.54 20.04 20.26 20.51 21.27 20.23 20.47 15.65 15.80 9.31
50.04 49.68 49.52 48.39 48.28 47.49 47.85 47.55 46.77 47.00 46.40 38.58 33.26 31.49 29.84 26.55 28.17 26.18 26.34 24.14 24.66 25.67 26.91 24.25 22.89 23.85 19.76 15.34 18.96 10.69 12.90 15.37 15.50 15.66 19.12 20.11 14.74 19.12 15.52 20.48 20.76 17.21 19.89 19.64 20.10 19.04 14.44
48.93 47.90 47.27 47.02 46.63 46.28 46.56 46.99 46.82 46.87 45.48 37.15 38.36 37.38 32.91 27.51 23.78 22.61 23.78 25.38 27.08 28.50 29.06 29.98 27.15 21.01 18.49 23.01 24.11 24.45 24.75 24.56 24.57 18.57 12.60 13.95 17.51 15.15 9.99 18.87 16.87 9.11 15.41 18.86 18.62 19.64 18.73
46.83 46.64 46.61 46.44 46.58 46.34 46.15 46.37 46.28 46.31 45.73 41.10 38.75 36.61 29.91 24.78 25.85 24.83 26.37 27.82 27.19 28.26 25.73 29.37 29.62 25.73 26.58 29.67 27.05 24.94 23.18 24.51 23.82 22.85 23.98 17.62 16.05 17.31 8.95 16.06 1.71 16.26 21.73 21.59 18.42 19.07 21.54
46.38 46.22 46.65 46.53 46.40 46.18 45.97 45.61 45.70 45.72 46.03 41.71 41.21 35.86 30.69 24.80 26.46 26.33 24.45 25.37 23.59 24.58 26.97 27.70 29.57 30.41 31.56 24.53 14.65 9.75 13.89 17.43 21.13 22.13 22.74 24.96 19.64 14.56 9.44 11.72 13.20 19.11 19.76 18.56 17.66 15.75 18.36
46.59 46.58 46.69 46.45 46.31 46.41 46.29 46.09 45.86 45.58 45.35 41.26 38.01 39.94 32.70 27.71 23.35 30.44 22.52 23.24 22.13 19.07 21.21 26.86 27.82 28.67 24.60 19.84 17.34 9.90 10.89 14.49 13.05 16.88 22.55 22.64 22.88 15.93 11.64 6.81 3.43 15.55 20.58 22.72 20.19 9.37 19.35
46.29 46.26 46.63 46.85 47.03 46.63 46.31 46.20 45.75 45.54 45.26 41.16 37.98 40.90 35.45 28.52 31.24 30.23 21.79 24.77 27.80 26.82 21.58 20.41 22.11 21.35 21.80 15.18 15.26 13.85 13.08 17.67 10.07 13.08 14.35 15.47 15.99 10.81 11.66 8.82 11.09 19.73 21.62 22.32 7.26 10.26 21.31
47.04 47.34 47.33 47.01 46.89 46.24 46.25 45.89 45.72 45.70 45.22 43.06 40.41 42.30 36.94 31.32 29.70 32.53 32.86 30.55 27.98 28.21 13.47 19.86 21.72 19.48 17.54 14.77 15.99 17.31 14.89 17.83 14.62 18.59 17.32 15.93 11.87 9.64 8.47 2.79 5.10 21.67 19.85 13.72 14.84 20.76 21.24
47.05 47.58 47.32 47.45 46.76 46.29 45.93 45.86 45.68 45.53 44.96 43.89 37.34 39.61 39.90 33.70 30.55 34.15 34.06 33.44 33.75 32.95 29.93 22.70 24.92 24.31 25.39 18.06 17.89 13.28 16.43 12.50 14.52 8.28 19.66 11.61 16.82 13.30 18.07 16.93 21.57 22.54 19.17 25.48 24.61 16.79 24.38
MSLP
1024.74 1024.44 1024.13 1023.80 1023.38 1022.95 1022.40 1021.92 1021.50 1020.98 1020.28 1019.59 1018.97 1018.27 1017.66 1016.93 1016.06 1015.14 1014.23 1013.35 1012.62 1012.10 1011.78 1011.64 1011.68 1011.71 1011.77 1011.34 1009.27 1007.63 1007.22 1006.91 1007.50 1008.18 1008.47 1009.14 1009.80 1010.26 1010.26 1009.94 1009.87 1009.33 1008.52 1008.34 1008.31 1008.23 1007.74
1024.91 1024.55 1024.20 1023.97 1023.60 1023.10 1022.52 1021.96 1021.47 1020.90 1020.18 1019.46 1018.81 1018.09 1017.43 1016.59 1015.65 1014.67 1013.73 1012.87 1012.02 1011.38 1011.09 1011.07 1011.06 1011.33 1011.45 1010.36 1007.67 1007.34 1007.48 1007.73 1007.61 1008.02 1008.43 1008.91 1008.93 1009.28 1009.52 1009.45 1009.45 1008.52 1008.59 1008.22 1007.79 1007.78 1007.67
1025.06 1024.79 1024.49 1024.09 1023.59 1023.01 1022.50 1022.02 1021.55 1020.99 1020.28 1019.58 1018.87 1018.13 1017.31 1016.35 1015.35 1014.22 1013.12 1012.27 1011.51 1010.78 1010.28 1010.26 1010.37 1010.72 1010.72 1008.97 1007.70 1007.52 1007.60 1007.82 1007.87 1008.13 1008.38 1008.38 1008.42 1008.73 1009.15 1009.49 1008.83 1008.58 1008.53 1008.23 1007.84 1007.47 1007.14
1025.33 1025.05 1024.65 1024.17 1023.66 1023.14 1022.68 1022.15 1021.66 1021.10 1020.39 1019.70 1018.93 1018.08 1017.17 1016.16 1015.07 1013.88 1012.43 1011.45 1010.82 1010.33 1009.95 1009.76 1009.96 1010.37 1009.36 1007.70 1007.74 1007.60 1007.63 1007.82 1007.91 1008.12 1008.50 1008.52 1008.36 1008.90 1009.09 1009.06 1008.89 1008.81 1008.54 1008.22 1007.27 1007.26 1007.14
1025.57 1025.30 1024.86 1024.46 1023.95 1023.43 1022.80 1022.35 1021.82 1021.12 1020.29 1019.57 1018.77 1017.82 1016.79 1015.81 1014.67 1013.46 1011.91 1010.78 1009.44 1009.60 1009.69 1009.63 1010.19 1010.32 1008.88 1007.94 1007.83 1007.59 1007.62 1007.79 1007.92 1008.10 1008.30 1008.38 1008.62 1008.84 1009.15 1009.58 1009.99 1009.37 1008.92 1008.34 1007.84 1006.97 1007.03
1025.86 1025.52 1025.04 1024.63 1024.14 1023.60 1023.02 1022.42 1021.78 1021.03 1020.29 1019.55 1018.67 1017.67 1016.49 1015.48 1014.40 1013.14 1011.74 1010.35 1009.75 1009.73 1009.74 1009.68 1009.35 1010.12 1008.39 1007.88 1007.80 1007.70 1007.68 1007.86 1008.12 1008.35 1008.64 1008.89 1009.14 1009.30 1009.68 1009.98 1008.96 1009.38 1009.27 1008.55 1007.85 1007.10 1006.86
1026.08 1025.64 1025.16 1024.70 1024.25 1023.71 1023.05 1022.49 1021.82 1020.98 1020.18 1019.37 1018.44 1017.48 1016.53 1015.32 1014.17 1013.23 1011.89 1010.72 1011.03 1010.70 1010.76 1010.46 1009.82 1009.24 1008.24 1007.86 1007.66 1007.72 1007.59 1007.80 1008.05 1008.71 1009.14 1009.14 1009.51 1009.26 1009.02 1009.05 1009.14 1009.27 1009.04 1008.43 1007.70 1006.95 1007.05
1026.17 1025.71 1025.22 1024.78 1024.27 1023.71 1023.08 1022.52 1021.89 1021.19 1020.39 1019.52 1018.55 1017.52 1016.40 1015.23 1014.31 1013.47 1013.02 1013.26 1014.25 1014.33 1012.03 1010.08 1009.30 1008.88 1007.99 1007.78 1007.88 1007.76 1007.74 1008.23 1008.51 1008.77 1009.18 1009.54 1009.00 1008.62 1008.66 1008.85 1009.03 1009.01 1008.93 1008.34 1007.70 1006.98 1007.00
1026.13 1025.75 1025.30 1024.92 1024.34 1023.73 1023.13 1022.44 1021.77 1021.09 1020.39 1019.55 1018.53 1017.51 1016.31 1014.97 1013.91 1013.59 1013.91 1014.26 1014.16 1014.03 1012.97 1009.43 1008.21 1007.70 1007.81 1007.98 1007.70 1007.67 1007.94 1008.08 1008.35 1008.64 1008.79 1008.90 1008.07 1008.02 1008.38 1008.47 1008.64 1008.46 1008.54 1008.38 1008.04 1007.57 1007.34
1026.31 1025.85 1025.43 1024.86 1024.27 1023.68 1023.10 1022.41 1021.76 1020.99 1020.28 1019.41 1018.46 1017.48 1016.64 1015.33 1014.24 1014.39 1014.17 1014.13 1013.82 1013.79 1012.89 1009.24 1008.02 1007.66 1007.77 1007.79 1007.91 1007.71 1007.91 1008.30 1008.19 1008.24 1008.52 1008.37 1007.45 1007.71 1008.03 1008.01 1007.98 1008.18 1008.20 1008.23 1008.10 1008.24 1008.49
1026.27 1025.81 1025.29 1024.78 1024.26 1023.62 1023.00 1022.23 1021.57 1020.90 1020.12 1019.31 1018.33 1017.30 1016.37 1015.65 1015.43 1014.75 1014.40 1013.83 1013.60 1013.65 1012.18 1008.83 1008.09 1007.61 1007.66 1008.08 1008.08 1008.16 1008.19 1008.32 1008.34 1008.15 1008.51 1008.01 1007.61 1007.64 1008.01 1008.04 1008.08 1008.32 1008.42 1008.60 1008.81 1009.10 1009.49
1026.24 1025.82 1025.32 1024.81 1024.19 1023.54 1022.84 1022.11 1021.38 1020.64 1019.85 1019.08 1018.12 1016.92 1016.35 1015.58 1015.44 1014.55 1013.99 1013.74 1013.70 1013.54 1010.53 1008.51 1008.18 1007.88 1008.20 1008.02 1007.98 1008.26 1008.35 1008.52 1008.67 1008.68 1008.42 1008.31 1008.29 1008.36 1008.59 1008.71 1008.70 1008.89 1009.14 1009.41 1009.78 1010.21 1010.69
1026.31 1025.87 1025.39 1024.82 1024.12 1023.45 1022.73 1022.07 1021.27 1020.49 1019.71 1018.96 1018.09 1016.75 1015.87 1015.38 1014.97 1014.13 1013.96 1014.04 1013.92 1012.49 1009.62 1010.06 1009.72 1009.48 1009.11 1008.58 1008.06 1008.35 1008.71 1009.08 1009.26 1009.35 1009.27 1008.83 1009.11 1009.24 1009.21 1009.32 1009.44 1009.40 1009.74 1010.59 1011.30 1011.63 1010.80
1026.32 1025.79 1025.24 1024.65 1023.95 1023.30 1022.65 1021.95 1021.19 1020.44 1019.73 1018.89 1018.18 1016.81 1015.30 1014.72 1014.40 1014.37 1014.32 1014.19 1013.88 1012.07 1011.73 1011.12 1010.93 1009.96 1009.82 1009.51 1009.13 1009.10 1009.12 1009.51 1009.60 1009.82 1010.12 1010.17 1010.12 1009.84 1009.81 1009.88 1009.85 1009.89 1009.92 1010.55 1011.13 1011.47 1011.56
1026.16 1025.63 1025.06 1024.45 1023.78 1023.14 1022.52 1021.89 1021.13 1020.39 1019.69 1018.88 1017.86 1016.87 1015.33 1014.35 1014.14 1014.38 1014.80 1014.61 1013.72 1012.99 1012.79 1012.24 1011.34 1010.90 1010.69 1010.52 1010.57 1010.35 1010.36 1010.66 1010.84 1010.85 1011.09 1010.97 1010.65 1010.37 1010.15 1010.23 1010.66 1010.37 1010.65 1010.81 1011.44 1012.02 1012.67
1026.04 1025.45 1024.78 1024.10 1023.48 1022.89 1022.40 1021.76 1021.08 1020.32 1019.52 1018.73 1017.92 1017.05 1015.12 1013.75 1013.92 1014.62 1014.99 1014.09 1013.70 1013.41 1013.06 1012.70 1012.50 1012.48 1012.51 1012.14 1011.94 1011.66 1011.45 1012.04 1011.94 1011.87 1011.54 1011.60 1011.45 1010.92 1010.69 1010.90 1011.03 1010.96 1011.25 1011.60 1012.24 1012.87 1013.48
1025.78 1025.18 1024.56 1023.91 1023.36 1022.83 1022.29 1021.54 1020.89 1020.14 1019.35 1018.61 1018.00 1017.13 1014.56 1013.69 1013.87 1014.60 1014.78 1014.16 1013.67 1013.45 1013.35 1013.26 1013.11 1013.39 1013.63 1013.86 1013.61 1013.11 1012.59 1013.31 1013.11 1012.77 1012.51 1012.40 1012.20 1012.07 1011.51 1011.61 1011.37 1011.50 1011.97 1012.44 1012.93 1013.61 1014.12
1025.47 1024.91 1024.30 1023.65 1023.13 1022.59 1022.09 1021.38 1020.73 1020.01 1019.31 1018.65 1018.53 1017.66 1014.44 1014.82 1015.09 1015.02 1014.91 1014.33 1014.11 1013.67 1013.61 1013.60 1013.50 1013.89 1014.35 1014.70 1014.58 1014.24 1013.88 1014.21 1014.15 1014.11 1013.92 1014.01 1013.27 1012.96 1012.64 1012.48 1012.30 1012.26 1012.80 1013.14 1013.84 1014.93 1015.33
1025.15 1024.55 1023.91 1023.33 1022.81 1022.18 1021.68 1021.18 1020.72 1020.15 1019.67 1019.55 1019.07 1017.73 1015.15 1015.20 1015.96 1016.02 1015.54 1014.91 1014.50 1013.96 1013.95 1014.11 1014.28 1014.52 1014.95 1015.46 1015.72 1015.05 1014.97 1014.89 1014.62 1014.70 1015.11 1014.97 1014.38 1014.02 1013.76 1013.70 1013.19 1013.18 1013.60 1013.91 1014.65 1015.64 1016.13
1024.86 1024.24 1023.60 1022.95 1022.36 1021.79 1021.34 1020.84 1020.38 1019.88 1019.59 1019.87 1019.54 1018.54 1016.97 1016.12 1016.22 1016.55 1016.28 1015.79 1015.13 1014.27 1014.14 1014.35 1014.61 1014.93 1015.53 1015.86 1015.87 1015.81 1015.44 1015.34 1015.12 1015.07 1014.91 1015.24 1015.50 1015.05 1014.58 1014.07 1014.13 1014.06 1013.90 1014.35 1015.16 1016.20 1016.55
1024.53 1023.78 1023.07 1022.62 1022.18 1021.61 1021.12 1020.60 1020.12 1019.68 1019.49 1019.84 1019.71 1019.01 1018.38 1017.85 1017.26 1017.29 1017.11 1016.42 1015.20 1014.80 1014.46 1014.57 1014.82 1015.26 1016.02 1016.63 1016.68 1016.45 1016.15 1015.95 1015.59 1015.40 1015.43 1015.56 1015.77 1015.39 1014.86 1014.28 1013.84 1013.89 1013.99 1014.27 1015.17 1015.82 1016.45
1024.06 1023.45 1022.87 1022.39 1021.85 1021.31 1020.77 1020.26 1019.90 1019.39 1019.28 1019.50 1019.49 1019.36 1018.80 1018.07 1017.80 1017.55 1016.98 1016.02 1015.51 1014.51 1014.80 1015.10 1014.78 1014.82 1015.49 1016.39 1016.66 1016.84 1016.77 1016.84 1016.68 1016.32 1016.23 1016.05 1016.17 1015.64 1015.25 1014.37 1014.05 1013.91 1013.76 1013.86 1014.25 1014.82 1015.57
1023.74 1023.24 1022.60 1021.99 1021.33 1020.79 1020.28 1019.74 1019.34 1018.92 1018.88 1019.17 1018.67 1018.80 1018.90 1018.02 1018.02 1017.83 1016.91 1016.12 1015.40 1015.31 1014.54 1014.73 1014.84 1015.22 1015.52 1015.67 1015.91 1016.08 1016.10 1016.09 1016.16 1016.48 1016.55 1016.71 1016.46 1016.44 1015.62 1014.54 1014.05 1014.02 1013.15 1013.11 1013.44 1013.95 1014.64
1023.52 1022.93 1022.21 1021.63 1021.20 1020.57 1019.99 1019.42 1019.10 1018.84 1018.43 1018.70 1018.41 1018.21 1018.01 1017.58 1017.52 1017.06 1016.68 1016.45 1015.95 1015.55 1015.42 1014.70 1014.94 1015.25 1015.52 1015.40 1015.64 1015.64 1015.63 1015.45 1015.88 1015.83 1016.09 1016.37 1016.51 1016.58 1016.07 1015.44 1014.91 1013.38 1012.78 1012.54 1013.49 1014.29 1014.50
1023.16 1022.55 1021.98 1021.39 1020.71 1020.09 1019.44 1019.04 1018.72 1018.37 1017.95 1018.12 1018.01 1018.22 1017.87 1016.94 1016.89 1016.77 1016.66 1016.44 1015.74 1015.44 1015.19 1015.36 1015.52 1015.69 1015.59 1015.79 1016.28 1016.27 1015.63 1015.50 1015.33 1015.37 1015.36 1015.61 1016.12 1016.36 1016.35 1015.63 1014.73 1013.87 1013.25 1013.13 1013.40 1015.15 1015.44
1022.74 1022.18 1021.59 1020.93 1020.09 1019.66 1019.31 1018.70 1018.37 1017.96 1017.64 1017.53 1017.54 1017.62 1017.98 1017.74 1016.86 1016.75 1016.74 1016.24 1016.03 1015.85 1015.98 1016.15 1016.35 1016.18 1016.14 1016.53 1016.94 1016.89 1016.38 1015.73 1015.62 1015.33 1015.26 1015.50 1015.62 1016.37 1016.67 1016.21 1015.27 1014.21 1013.85 1013.62 1013.81 1015.68 1015.81
1022.17 1021.46 1020.79 1020.20 1019.50 1019.02 1018.56 1018.14 1017.87 1017.55 1017.17 1017.12 1017.06 1016.96 1017.22 1017.10 1016.82 1016.99 1017.04 1016.55 1016.22 1016.43 1016.67 1016.74 1016.99 1016.95 1016.86 1017.30 1017.39 1017.07 1016.52 1016.05 1015.93 1015.58 1015.59 1015.76 1016.01 1016.57 1016.67 1016.48 1015.78 1015.22 1014.84 1014.64 1015.49 1017.10 1016.49
1021.53 1020.81 1020.20 1019.63 1019.04 1018.60 1018.18 1017.72 1017.49 1017.10 1016.76 1016.77 1016.74 1016.64 1016.89 1016.91 1017.15 1017.20 1017.14 1016.77 1016.73 1016.68 1016.81 1017.09 1017.22 1017.45 1017.63 1017.69 1017.63 1017.35 1017.02 1016.65 1016.47 1015.88 1015.68 1015.75 1016.21 1016.61 1016.95 1016.80 1016.63 1015.90 1015.72 1016.26 1017.16 1017.06 1017.19
1021.13 1020.35 1019.63 1018.96 1018.34 1017.87 1017.57 1017.38 1017.15 1016.85 1016.60 1016.51 1016.82 1017.19 1017.10 1017.44 1017.70 1017.67 1017.45 1017.69 1017.57 1017.32 1017.10 1017.09 1017.36 1017.47 1017.37 1017.57 1017.79 1017.64 1017.45 1017.20 1016.95 1016.50 1015.72 1016.04 1016.32 1016.66 1016.94 1016.78 1016.68 1016.79 1017.02 1017.33 1017.50 1017.80 1017.99
Wind_Speed
18 19 20 20 21 22 23 24 25 26 27 27 28 28 29 30 30 31 31 29 26 23 20 17 13 8 4 6 12 3 3 9 8 10 15 11 13 9 7 7 16 14 18 9 16 12 13
18 19 19 21 22 23 24 25 25 26 26 28 29 30 31 32 32 32 32 28 26 22 18 14 11 7 5 8 5 4 3 5 4 10 9 8 8 9 5 9 8 7 14 20 15 14 13
17 19 20 21 22 23 24 25 25 26 27 28 29 30 31 32 33 33 32 29 25 22 17 12 8 10 9 14 3 2 1 4 3 5 4 4 9 5 2 12 9 6 8 6 6 6 7
19 20 20 22 23 23 24 25 25 26 28 29 30 32 32 32 33 34 32 28 26 22 13 7 7 7 7 5 3 3 3 4 4 4 4 4 4 5 5 4 7 5 3 4 6 5 7
18 19 20 22 23 24 25 26 26 28 28 29 31 33 34 33 33 32 31 29 21 6 7 9 7 4 7 1 2 3 4 4 4 2 2 3 1 3 1 3 5 4 5 5 5 12 5
19 19 20 22 23 23 25 26 27 28 29 30 31 30 32 32 31 28 29 28 6 3 4 7 6 0 4 2 2 2 1 1 4 5 1 2 2 3 3 4 16 7 6 6 8 5 10
19 19 20 21 22 24 25 25 26 28 29 28 30 31 32 32 30 24 17 6 9 5 6 6 7 6 6 1 2 4 3 3 2 4 6 5 4 8 14 15 6 4 5 7 5 6 6
18 19 20 21 23 24 25 26 27 27 28 29 31 31 33 34 30 21 5 6 4 4 13 13 17 12 6 2 2 4 3 5 5 7 4 2 10 12 8 12 12 14 14 16 10 4 7
18 19 21 22 24 25 25 25 27 27 28 29 30 30 33 33 29 5 6 5 4 2 7 9 6 4 3 5 4 6 8 4 5 6 9 7 7 13 12 11 13 12 7 6 9 2 2
19 20 21 23 24 25 26 26 27 27 26 26 29 30 31 34 5 8 2 6 4 3 5 4 3 2 2 2 2 2 4 1 4 8 8 9 16 16 8 7 5 11 2 2 4 5 4
19 20 21 23 24 25 25 26 27 27 25 27 28 29 29 23 5 4 5 6 6 2 6 2 3 1 1 3 2 1 2 2 4 2 1 6 1 3 4 2 1 3 3 3 2 3 3
20 21 22 22 24 24 24 25 26 25 26 27 29 31 30 5 3 4 7 7 1 1 10 2 3 2 2 3 3 3 3 1 3 3 4 6 1 2 2 3 3 5 3 4 4 3 3
20 21 21 22 22 23 24 25 25 26 26 26 28 32 22 3 5 6 5 3 2 5 7 6 6 8 6 5 3 4 4 2 3 1 3 3 2 2 2 3 3 1 4 0 1 0 6
20 21 21 22 22 22 23 24 25 26 25 25 27 30 8 7 3 5 4 3 6 5 4 6 6 15 2 9 5 9 3 2 2 0 2 1 3 1 1 1 3 5 3 4 6 5 3
19 21 21 22 22 23 24 25 26 26 26 25 23 5 6 4 2 3 4 1 2 2 4 8 9 5 3 4 7 4 4 4 4 5 4 3 4 2 3 2 2 3 5 2 2 1 2
20 20 21 22 22 23 24 24 26 26 26 27 8 4 5 2 2 3 2 3 2 3 3 3 2 5 5 9 6 7 1 5 4 6 6 3 3 3 2 2 1 2 0 2 2 4 4
21 22 23 23 23 22 21 23 25 26 25 24 3 6 6 10 3 4 3 2 2 2 5 4 3 4 4 4 3 5 1 7 7 6 8 3 4 1 2 3 3 3 1 2 2 3 5
21 22 23 24 22 22 20 22 24 25 25 8 3 6 8 8 5 1 2 2 4 5 4 4 3 2 1 3 3 3 3 6 7 7 6 6 2 2 3 2 4 4 2 2 3 2 2
22 24 24 23 22 22 20 20 23 24 24 4 5 5 7 5 2 4 5 5 5 5 1 2 3 1 1 2 3 1 2 5 3 3 2 7 4 2 1 0 3 4 1 3 5 3 2
24 26 26 25 24 23 18 18 22 22 20 2 4 5 5 4 0 2 6 5 6 3 3 4 4 2 2 3 3 5 4 3 4 1 6 6 2 3 4 2 2 2 1 2 5 3 3
25 26 26 24 24 25 22 22 22 20 17 3 2 2 2 5 4 7 5 9 17 8 5 5 3 5 5 1 5 4 3 5 5 6 1 5 3 4 7 9 7 6 6 7 6 6 5
25 26 24 27 26 25 23 22 20 19 17 2 3 3 2 5 6 5 10 5 13 17 6 5 7 7 5 7 9 7 3 2 7 5 2 2 3 2 5 10 9 7 7 8 8 6 3
26 28 27 26 24 24 23 22 20 19 11 3 1 1 3 5 3 4 4 9 5 13 5 10 6 3 2 6 5 7 7 6 6 5 4 2 3 3 4 7 4 5 7 10 5 5 8
26 26 26 26 25 24 24 24 22 20 15 3 3 3 3 5 4 5 7 13 12 10 10 2 2 3 3 2 2 4 6 11 7 10 8 4 4 4 4 2 0 6 1 4 10 7 5
26 26 25 25 24 23 23 24 24 20 19 4 3 1 3 4 5 6 3 6 7 7 5 2 1 2 2 4 4 7 5 1 1 2 10 10 4 1 2 4 1 2 2 2 4 3 4
25 25 25 25 25 25 24 22 22 20 18 5 3 2 1 5 0 5 4 4 3 1 4 2 2 4 4 3 2 1 2 3 2 2 4 2 4 4 2 2 2 2 2 6 3 3 7
26 26 26 27 27 26 24 21 19 18 16 6 3 4 2 3 1 3 2 5 2 2 1 1 2 4 3 2 1 2 2 1 2 3 2 2 3 2 1 1 3 3 4 4 6 6 1
27 26 26 26 25 24 21 18 17 16 14 6 3 2 3 0 3 4 6 4 3 2 3 4 3 4 3 1 0 2 1 2 2 3 0 2 3 3 2 2 2 5 3 6 6 1 2
27 26 24 23 21 18 17 14 14 13 11 5 2 3 1 1 2 3 4 6 5 4 3 2 3 3 2 1 1 1 2 2 0 3 5 3 3 2 1 1 1 3 3 3 2 3 1
Wind_Direction
27 24 20 16 13 10 9 8 4 359 356 353 350 347 344 339 335 331 327 323 318 312 303 292 284 268 245 219 253 262 51 128 138 160 187 195 199 192 209 207 245 232 248 238 240 252 256
25 21 18 13 11 9 8 6 2 358 354 352 350 347 343 339 336 331 327 322 318 316 306 292 274 216 210 240 261 139 182 156 180 169 195 193 202 208 233 241 203 245 234 250 243 247 263
23 18 15 12 9 7 5 2 359 356 353 352 348 345 341 337 335 331 326 320 318 314 308 292 257 171 219 242 358 111 76 191 170 191 204 243 248 180 170 267 280 230 269 270 223 224 214
20 15 12 9 6 5 2 360 357 353 351 350 347 343 340 337 335 331 322 318 315 309 308 294 178 167 243 205 243 202 207 222 233 209 201 266 311 205 177 290 341 281 303 234 221 219 242
16 11 10 6 4 0 360 358 354 352 349 348 344 340 337 337 335 331 321 320 310 288 315 125 135 216 274 26 189 215 173 197 188 245 249 280 321 191 272 146 321 257 244 235 285 235 221
11 8 7 4 1 359 357 355 352 350 347 345 341 337 335 337 336 333 324 323 64 25 301 199 256 19 244 188 129 14 16 329 168 140 96 217 164 195 167 149 228 208 249 253 227 259 197
7 4 2 359 357 355 356 354 351 348 347 343 339 337 336 338 336 335 335 11 11 359 30 266 279 287 286 143 141 218 192 172 148 130 188 204 175 205 208 217 242 268 254 265 277 252 180
3 359 357 354 356 354 353 351 348 347 347 342 338 338 337 337 334 328 352 64 137 260 297 280 263 274 255 144 257 208 155 157 178 200 199 305 236 227 207 225 241 243 258 269 282 254 181
358 355 354 353 353 352 350 348 347 346 344 339 336 338 338 337 327 356 80 56 213 287 280 292 223 206 202 145 237 191 157 199 209 205 212 197 238 219 222 245 244 234 231 229 242 300 194
355 352 352 351 349 349 348 347 346 344 340 338 336 336 339 339 25 329 56 342 333 158 306 254 206 226 104 176 287 100 192 238 238 213 216 237 246 240 210 225 195 241 168 235 163 144 222
350 349 349 349 348 346 345 345 344 342 339 339 335 331 335 332 273 312 288 321 308 199 343 125 125 167 146 195 167 174 59 50 267 265 336 244 101 133 197 218 188 195 109 123 90 100 85
347 348 349 346 346 343 342 343 342 339 339 337 336 329 334 330 300 272 328 313 214 5 251 75 96 353 1 194 219 148 132 134 254 306 250 239 21 63 118 71 37 150 109 50 50 82 304
348 348 347 344 342 340 344 342 340 337 336 334 332 326 327 263 257 317 334 27 359 197 345 17 359 336 320 265 275 167 160 188 214 321 352 335 103 42 54 103 16 133 110 195 16 263 230
347 344 342 341 340 342 340 339 336 334 332 333 331 317 309 263 257 332 16 44 232 52 354 16 326 303 193 14 1 349 318 269 75 287 86 313 251 46 111 65 225 201 194 178 206 200 244
341 342 341 337 338 338 338 337 337 334 338 340 330 290 305 251 295 66 57 328 309 10 356 321 318 321 17 35 345 13 19 12 33 13 205 212 249 149 83 29 62 193 192 160 67 266 96
340 336 334 334 335 335 339 340 339 338 340 340 321 292 280 265 300 84 109 235 160 355 335 303 277 46 330 345 357 5 317 21 359 360 343 264 293 205 151 125 329 118 256 108 153 170 206
335 335 334 333 332 335 337 340 337 337 338 341 321 326 266 342 84 69 184 178 307 353 53 339 316 310 336 10 306 299 258 59 1 359 355 350 215 223 84 188 211 130 164 72 97 149 171
332 329 328 330 330 332 333 340 336 334 340 352 301 309 294 350 11 38 84 6 340 309 56 298 347 357 99 327 285 278 337 37 4 1 5 7 357 338 49 72 9 35 80 93 155 220 110
325 325 325 325 325 327 325 333 337 332 340 339 300 259 297 100 348 339 321 310 306 258 187 312 281 112 116 242 340 338 355 195 136 78 68 2 327 348 111 281 358 63 31 101 111 101 210
324 324 322 321 326 327 328 328 333 332 338 52 303 307 310 17 310 351 352 300 290 331 233 198 237 262 214 271 217 274 313 164 218 176 303 135 254 272 220 46 108 307 196 167 115 111 196
326 325 327 334 338 340 328 330 329 328 340 64 232 277 325 300 315 324 302 293 279 272 234 199 252 213 167 245 334 270 274 355 327 307 346 149 248 240 261 275 286 222 210 207 164 186 158
332 331 335 331 329 331 329 326 327 324 338 197 277 293 309 269 286 293 286 262 288 292 254 254 217 211 171 179 194 244 185 186 222 313 158 282 244 307 272 256 250 249 224 226 218 196 186
334 329 328 330 332 331 328 326 323 320 342 264 234 237 232 273 274 269 254 284 298 306 249 236 266 175 103 227 216 227 218 233 216 184 192 170 135 42 281 342 62 333 229 226 200 170 175
330 329 329 332 333 330 326 324 326 323 318 221 220 240 262 264 228 241 285 293 300 307 290 265 16 106 248 129 293 277 252 249 215 236 211 199 165 172 246 345 247 251 278 115 98 49 37
330 329 330 327 325 318 316 322 324 325 317 305 312 296 288 248 228 294 313 291 303 294 331 29 36 241 212 57 36 353 330 347 237 256 224 211 176 208 158 195 270 313 320 98 139 50 355
329 326 325 321 316 319 320 320 320 322 321 302 228 210 247 293 48 297 284 240 284 3 351 62 359 332 51 91 71 242 283 312 296 320 55 159 128 131 158 194 212 246 335 355 55 15 321
327 326 321 322 321 324 323 322 325 323 322 317 261 213 211 277 328 358 294 302 306 50 256 16 323 13 44 63 260 265 287 289 359 290 137 78 83 159 296 315 301 348 345 348 82 212 44
328 325 324 325 327 328 328 330 327 325 334 351 298 225 233 343 330 1 340 329 338 274 146 253 49 352 40 44 91 318 322 349 9 306 168 121 143 185 107 75 310 355 8 109 215 1 78
334 330 330 330 331 335 333 334 338 342 348 11 0 33 227 357 289 333 8 40 8 341 315 309 134 180 236 78 5 36 340 13 249 305 349 28 146 207 221 172 145 7 114 101 123 136 60